一网星座-0205星 (ONEWEB-0205 )

导读

ONEWEB-0205是英国OneWeb星座下的低轨互联网通信卫星,于2021年4月25日在英国发射升空,属于OneWeb全球卫星互联网项目的组成部分。OneWeb项目计划在近地轨道部署数百颗卫星,为全球偏远、基础设施薄弱地区提供高速低延时的宽带互联网接入,推动全球网络覆盖,该项目在英国政府主导的重组后持续推进建设,是商业低轨卫星互联网领域的重要组成。

基本信息
目录编号:
48226
目录名称:
ONEWEB-0205
国际标识:
2021-031S
轨道中心:
EARTH
卫星名称:
一网星座-0205星
卫星全名:
一网星座-0205星 (ONEWEB-0205 )
卫星状态:
在轨 (已飞行1969 天)
发射日期:
2021-04-25 UTC
国别 :
英国 (GB)
星等 :
--
该卫星已列入 空间交会检测服务 Space Conjunction Data Service (SCDS) ,当前飞行风险评估等级: 无高风险
轨道信息
数据来源 国际轨道数据 AOE轨道数据
星历时间 2026-09-15T19:46:45+0800
11小时前
查看轨道信息
2026-09-15T23:00:00+0800
7小时前
查看轨道信息
半长轴 7583.924km 7583.937km
偏心率 0.0001644 0.0001732
轨道倾角 87.890° 87.889°
近地点辐角 93.630° 95.289°
升交点赤经 271.693° 271.665°
平近点角 266.502° 179.553°
近地点 1204.54km 1204.486km
远地点 1207.034km 1207.114km
周期 109.547分钟 109.547分钟
每日圈数 13.145038 13.145005
详细信息
平衡模式:
三轴稳定
覆盖范围:
全球
运营商:
一网卫星公司
运营商所在国:
英国
制造商(研发单位):
一网卫星公司
制造商所在国:
英国
使用方式:
暂无
卫星简介
OneWeb卫星网络由648颗重约125公斤的微型卫星组成,运行在1200公里的轨道上。 每颗卫星都能够提供至少每秒8千兆位的吞吐量,以使用其高吞吐量的Ku频段有效载荷为家庭和移动平台提供互联网接入。该卫星仍在工作。
2D轨道图
3D轨道图
轨道高度分析图
轨道倾角分析图
轨道综合分析图
查看轨道综合分析图
交会数据列表
事件ID 空间交会对象 最接近时刻(TCA) 交会距离 交会风险概率(CRP) 交会风险指数(CRI) 操作
CDM_260916-063601-065404-822621
2026-09-16T
06:36:06+0000
2.861 km
极远距离
8.348557E-7 极低风险 0.33
与全量物体交会距离演化趋势 订阅飞行安全评估服务
与全量物体交会风险概率演化趋势 订阅飞行安全评估服务